Regional Weather Roundup
Issued by NWS

Home | Current Version | Previous Version | Graphics & Text | Print | Product List | Glossary On
Versions: 1 2 3 4 5 6 7 8 9 10 11 12 13 14 15 16 17 18 19 20 21 22 23 24 25 26 27 28 29 30 31 32 33 34 35 36 37 38 39 40 41 42 43 44 45 46 47 48 49 50
000
ASUS43 KFSD 210010
RWRSD

WEATHER ROUNDUP FOR SOUTH DAKOTA
NATIONAL WEATHER SERVICE SIOUX FALLS SD
700 PM CDT THU JUL 20 2017

NOTE: "FAIR" INDICATES FEW OR NO CLOUDS BELOW 12,000 FEET WITH NO
SIGNIFICANT WEATHER AND/OR OBSTRUCTIONS TO VISIBILITY.


SDZ001>005-009-010-012>017-210100-
NORTHWEST AND NORTH CENTRAL SOUTH DAKOTA

CITY           SKY/WX    TMP DP  RH WIND       PRES   REMARKS
BUFFALO          N/A     68  63  84 NW28G36   29.88R
FAITH            N/A     94  62  34 S23G36    29.81F
MOBRIDGE       SUNNY     91  64  40 SE22G30   29.80F
$$

SDZ012>016-024>037-041>051-057-063-072>074-210100-
SOUTHWEST AND SOUTH CENTRAL SOUTH DAKOTA

CITY           SKY/WX    TMP DP  RH WIND       PRES   REMARKS
RAPID CTY ARPT SUNNY     96  57  27 S17G26    29.88F HX  95
PIERRE         NOT AVBL
CUSTER         SUNNY     85  52  32 S9G20     30.08F
ELLSWORTH AFB  SUNNY     97  58  27 S22       29.87F HX  95
PHILIP         SUNNY     98  59  27 S17G25    29.81F HX  98
PINE RIDGE     SUNNY     91  63  39 SE13      29.94F
SPEARFISH      LGT RAIN  97  52  21 SW14G22   29.88F
WINNER         FAIR      95  62  33 SE21G26   29.89F HX  96
$$

SDZ004>011-016>023-039-040-210100-
NORTHEAST SOUTH DAKOTA

CITY           SKY/WX    TMP DP  RH WIND       PRES   REMARKS
ABERDEEN       SUNNY     86  67  52 SE12      29.88F
WATERTOWN      SUNNY     84  60  44 SE9       29.94F
BROOKINGS      SUNNY     85  64  49 SE14      29.96F
SISSETON         N/A     85  70  60 SE12      29.90F
$$

SDZ017-020-022-023-036>040-048>070-210100-
SOUTHEAST SOUTH DAKOTA

CITY           SKY/WX    TMP DP  RH WIND       PRES   REMARKS
SIOUX FALLS    MOSUNNY   86  71  60 SE12      29.95F
HURON          SUNNY     88  70  55 SE13      29.88F
CHAMBERLAIN    SUNNY     94  66  40 SE15      29.87F HX  96
MITCHELL       SUNNY     87  74  64 SE13      29.90F HX  95
YANKTON        SUNNY     86  75  69 E13       29.93  HX  95
$$

ABBREVIATIONS USED IN REMARKS
   TC - TEMPERATURE IN CELSIUS
  WCI - WIND CHILL INDEX
   HX - HEAT INDEX
  VSB - VISIBILITY




USA.gov is the U.S. government's official web portal to all federal, state and local government web resources and services.